Time,TemperatureF,DewpointF,PressureIn,WindDirection,WindDirectionDegrees,WindSpeedMPH,WindSpeedGustMPH,Humidity,HourlyPrecipIn,Conditions,Clouds,dailyrainin,SoftwareType,DateUTC
2013-07-11 00:01:00,83.4,69.9,29.19,North,360,1.0,7.0,64,0.00,,---,0.00,VWS V12.08,2013-07-11 04:01:00,
2013-07-11 00:03:00,83.2,69.3,29.19,North,360,4.0,7.0,63,0.00,,---,0.00,VWS V12.08,2013-07-11 04:03:00,
2013-07-11 00:04:00,83.2,69.8,29.19,North,360,4.0,7.0,64,0.00,,---,0.00,VWS V12.08,2013-07-11 04:04:00,
2013-07-11 00:09:00,83.2,70.2,29.19,North,360,0.0,7.0,65,0.00,,---,0.00,VWS V12.08,2013-07-11 04:09:00,
2013-07-11 00:10:00,83.0,69.6,29.19,North,360,0.0,7.0,64,0.00,,---,0.00,VWS V12.08,2013-07-11 04:10:00,
2013-07-11 00:15:00,83.2,69.8,29.19,North,360,0.0,7.0,64,0.00,,---,0.00,VWS V12.08,2013-07-11 04:15:00,
2013-07-11 00:20:00,83.2,70.2,29.19,North,360,1.0,7.0,65,0.00,,---,0.00,VWS V12.08,2013-07-11 04:20:00,
2013-07-11 00:25:00,83.2,70.2,29.19,North,360,0.0,7.0,65,0.00,,---,0.00,VWS V12.08,2013-07-11 04:25:00,
2013-07-11 00:30:00,83.0,69.6,29.19,North,360,1.0,5.0,64,0.00,,---,0.00,VWS V12.08,2013-07-11 04:30:00,
2013-07-11 00:35:00,83.0,70.0,29.19,North,360,2.0,5.0,65,0.00,,---,0.00,VWS V12.08,2013-07-11 04:35:00,
2013-07-11 00:40:00,83.0,70.0,29.19,North,360,1.0,5.0,65,0.00,,---,0.00,VWS V12.08,2013-07-11 04:40:00,
2013-07-11 00:45:00,83.0,70.5,29.18,North,360,7.0,7.0,66,0.00,,---,0.00,VWS V12.08,2013-07-11 04:45:00,
2013-07-11 00:50:00,82.8,70.3,29.18,North,360,3.0,7.0,66,0.00,,---,0.00,VWS V12.08,2013-07-11 04:50:00,
2013-07-11 00:55:00,83.0,70.0,29.18,North,360,0.0,7.0,65,0.00,,---,0.00,VWS V12.08,2013-07-11 04:55:00,
2013-07-11 01:00:00,83.2,70.7,29.18,North,360,0.0,4.0,66,0.00,,---,0.00,VWS V12.08,2013-07-11 05:00:00,
2013-07-11 01:05:00,83.0,70.0,29.18,North,360,4.0,4.0,65,0.00,,---,0.00,VWS V12.08,2013-07-11 05:05:00,
2013-07-11 01:10:00,83.0,70.0,29.18,North,360,0.0,4.0,65,0.00,,---,0.00,VWS V12.08,2013-07-11 05:10:00,
2013-07-11 01:15:00,83.0,70.5,29.19,North,360,2.0,5.0,66,0.00,,---,0.00,VWS V12.08,2013-07-11 05:15:00,
2013-07-11 01:20:00,82.8,70.7,29.19,North,360,0.0,6.0,67,0.00,,---,0.00,VWS V12.08,2013-07-11 05:20:00,
2013-07-11 01:25:00,82.6,70.5,29.19,North,360,8.0,10.0,67,0.00,,---,0.00,VWS V12.08,2013-07-11 05:25:00,
2013-07-11 01:30:00,82.4,70.8,29.19,North,360,5.0,5.0,68,0.00,,---,0.00,VWS V12.08,2013-07-11 05:30:00,
2013-07-11 01:35:00,82.4,70.8,29.19,North,360,2.0,11.0,68,0.00,,---,0.00,VWS V12.08,2013-07-11 05:35:00,
2013-07-11 01:40:00,82.4,70.8,29.19,North,360,11.0,13.0,68,0.00,,---,0.00,VWS V12.08,2013-07-11 05:40:00,
2013-07-11 01:45:00,82.2,71.0,29.19,North,360,2.0,13.0,69,0.00,,---,0.00,VWS V12.08,2013-07-11 05:45:00,
2013-07-11 01:50:00,82.0,70.4,29.19,North,360,0.0,13.0,68,0.00,,---,0.00,VWS V12.08,2013-07-11 05:50:00,
2013-07-11 01:55:00,82.2,70.6,29.19,North,360,1.0,13.0,68,0.00,,---,0.00,VWS V12.08,2013-07-11 05:55:00,
2013-07-11 02:00:00,82.2,70.6,29.18,North,360,1.0,3.0,68,0.00,,---,0.00,VWS V12.08,2013-07-11 06:00:00,
2013-07-11 02:05:00,82.2,70.6,29.18,North,360,0.0,3.0,68,0.00,,---,0.00,VWS V12.08,2013-07-11 06:05:00,
2013-07-11 02:10:00,82.0,71.3,29.18,North,360,7.0,7.0,70,0.00,,---,0.00,VWS V12.08,2013-07-11 06:10:00,
2013-07-11 02:15:00,82.0,71.3,29.19,North,360,2.0,7.0,70,0.00,,---,0.00,VWS V12.08,2013-07-11 06:15:00,
2013-07-11 02:20:00,82.0,70.8,29.19,North,360,2.0,7.0,69,0.00,,---,0.00,VWS V12.08,2013-07-11 06:20:00,
2013-07-11 02:25:00,81.8,71.1,29.19,North,360,0.0,7.0,70,0.00,,---,0.00,VWS V12.08,2013-07-11 06:25:00,
2013-07-11 02:30:00,81.8,71.1,29.19,North,360,2.0,2.0,70,0.00,,---,0.00,VWS V12.08,2013-07-11 06:30:00,
2013-07-11 02:35:00,81.8,71.1,29.19,North,360,0.0,4.0,70,0.00,,---,0.00,VWS V12.08,2013-07-11 06:35:00,
2013-07-11 02:40:00,81.8,71.1,29.19,North,360,1.0,6.0,70,0.00,,---,0.00,VWS V12.08,2013-07-11 06:40:00,
2013-07-11 02:45:00,81.8,71.5,29.19,North,360,4.0,6.0,71,0.00,,---,0.00,VWS V12.08,2013-07-11 06:45:00,
2013-07-11 02:50:00,81.6,71.3,29.19,North,360,4.0,10.0,71,0.00,,---,0.00,VWS V12.08,2013-07-11 06:50:00,
2013-07-11 02:55:00,81.6,71.7,29.19,North,360,5.0,13.0,72,0.00,,---,0.00,VWS V12.08,2013-07-11 06:55:00,
2013-07-11 03:00:00,81.4,71.5,29.19,North,360,0.0,4.0,72,0.00,,---,0.00,VWS V12.08,2013-07-11 07:00:00,
2013-07-11 03:05:00,81.4,71.9,29.19,North,360,0.0,5.0,73,0.00,,---,0.00,VWS V12.08,2013-07-11 07:05:00,
2013-07-11 03:10:00,81.4,72.3,29.19,North,360,4.0,8.0,74,0.00,,---,0.00,VWS V12.08,2013-07-11 07:10:00,
2013-07-11 03:15:00,81.2,71.3,29.19,North,360,0.0,8.0,72,0.00,,---,0.00,VWS V12.08,2013-07-11 07:15:00,
2013-07-11 03:20:00,81.4,71.5,29.19,North,360,0.0,8.0,72,0.00,,---,0.00,VWS V12.08,2013-07-11 07:20:00,
2013-07-11 03:25:00,81.4,71.5,29.19,North,360,4.0,8.0,72,0.00,,---,0.00,VWS V12.08,2013-07-11 07:25:00,
2013-07-11 03:30:00,81.1,71.6,29.19,North,360,4.0,6.0,73,0.00,,---,0.00,VWS V12.08,2013-07-11 07:30:00,
2013-07-11 03:35:00,80.9,71.4,29.19,North,360,0.0,6.0,73,0.00,,---,0.00,VWS V12.08,2013-07-11 07:35:00,
2013-07-11 03:40:00,81.1,71.6,29.19,North,360,0.0,6.0,73,0.00,,---,0.00,VWS V12.08,2013-07-11 07:40:00,
2013-07-11 03:45:00,81.1,71.6,29.18,North,360,4.0,6.0,73,0.00,,---,0.00,VWS V12.08,2013-07-11 07:45:00,
2013-07-11 03:50:00,81.2,71.3,29.18,North,360,3.0,6.0,72,0.00,,---,0.00,VWS V12.08,2013-07-11 07:50:00,
2013-07-11 03:56:00,81.4,71.1,29.18,North,360,1.0,6.0,71,0.00,,---,0.00,VWS V12.08,2013-07-11 07:56:00,
2013-07-11 04:01:00,81.6,71.3,29.18,North,360,2.0,4.0,71,0.00,,---,0.00,VWS V12.08,2013-07-11 08:01:00,
2013-07-11 04:06:00,81.6,70.9,29.18,North,360,0.0,4.0,70,0.00,,---,0.00,VWS V12.08,2013-07-11 08:06:00,
2013-07-11 04:11:00,81.6,71.3,29.18,North,360,1.0,4.0,71,0.00,,---,0.00,VWS V12.08,2013-07-11 08:11:00,
2013-07-11 04:16:00,81.2,71.3,29.18,North,360,3.0,6.0,72,0.00,,---,0.00,VWS V12.08,2013-07-11 08:16:00,
2013-07-11 04:21:00,80.9,71.8,29.18,North,360,3.0,7.0,74,0.00,,---,0.00,VWS V12.08,2013-07-11 08:21:00,
2013-07-11 04:26:00,80.9,71.4,29.18,North,360,0.0,7.0,73,0.00,,---,0.00,VWS V12.08,2013-07-11 08:26:00,
2013-07-11 04:31:00,81.2,71.3,29.18,North,360,4.0,4.0,72,0.00,,---,0.00,VWS V12.08,2013-07-11 08:31:00,
2013-07-11 04:36:00,81.1,71.6,29.18,North,360,3.0,4.0,73,0.00,,---,0.00,VWS V12.08,2013-07-11 08:36:00,
2013-07-11 04:41:00,80.9,71.8,29.18,North,360,2.0,6.0,74,0.00,,---,0.00,VWS V12.08,2013-07-11 08:41:00,
2013-07-11 04:46:00,80.7,71.7,29.17,North,360,3.0,6.0,74,0.00,,---,0.00,VWS V12.08,2013-07-11 08:46:00,
2013-07-11 04:51:00,80.5,71.5,29.17,North,360,5.0,9.0,74,0.00,,---,0.00,VWS V12.08,2013-07-11 08:51:00,
2013-07-11 04:56:00,80.5,71.5,29.17,North,360,5.0,9.0,74,0.00,,---,0.00,VWS V12.08,2013-07-11 08:56:00,
2013-07-11 05:01:00,80.3,71.3,29.17,North,360,3.0,6.0,74,0.00,,---,0.00,VWS V12.08,2013-07-11 09:01:00,
2013-07-11 05:06:00,80.3,71.3,29.17,North,360,2.0,6.0,74,0.00,,---,0.00,VWS V12.08,2013-07-11 09:06:00,
2013-07-11 05:11:00,80.3,71.3,29.17,North,360,3.0,7.0,74,0.00,,---,0.00,VWS V12.08,2013-07-11 09:11:00,
2013-07-11 05:16:00,80.3,70.9,29.18,North,360,0.0,7.0,73,0.00,,---,0.00,VWS V12.08,2013-07-11 09:16:00,
2013-07-11 05:21:00,80.5,70.2,29.18,North,360,1.0,7.0,71,0.00,,---,0.00,VWS V12.08,2013-07-11 09:21:00,
2013-07-11 05:26:00,80.7,70.4,29.18,North,360,2.0,7.0,71,0.00,,---,0.00,VWS V12.08,2013-07-11 09:26:00,
2013-07-11 05:31:00,80.9,70.2,29.19,North,360,1.0,3.0,70,0.00,,---,0.00,VWS V12.08,2013-07-11 09:31:00,
2013-07-11 05:36:00,80.9,70.6,29.19,North,9,2.0,7.0,71,0.00,,---,0.00,VWS V12.08,2013-07-11 09:36:00,
2013-07-11 05:41:00,80.3,69.6,29.19,North,360,1.0,13.0,70,0.00,,---,0.00,VWS V12.08,2013-07-11 09:41:00,
2013-07-11 05:46:00,80.3,69.6,29.19,North,360,3.0,13.0,70,0.00,,---,0.00,VWS V12.08,2013-07-11 09:46:00,
2013-07-11 05:51:00,80.3,69.6,29.19,North,360,0.0,13.0,70,0.00,,---,0.00,VWS V12.08,2013-07-11 09:51:00,
2013-07-11 05:56:00,80.5,69.4,29.19,North,360,1.0,13.0,69,0.00,,---,0.00,VWS V12.08,2013-07-11 09:56:00,
2013-07-11 06:01:00,80.5,69.4,29.19,North,360,0.0,4.0,69,0.00,,---,0.00,VWS V12.08,2013-07-11 10:01:00,
2013-07-11 06:06:00,80.3,69.6,29.19,North,360,2.0,6.0,70,0.00,,---,0.00,VWS V12.08,2013-07-11 10:06:00,
2013-07-11 06:11:00,80.1,70.3,29.19,North,360,1.0,6.0,72,0.00,,---,0.00,VWS V12.08,2013-07-11 10:11:00,
2013-07-11 06:16:00,79.8,70.0,29.20,North,360,1.0,6.0,72,0.00,,---,0.00,VWS V12.08,2013-07-11 10:16:00,
2013-07-11 06:21:00,79.6,70.2,29.20,North,360,3.0,6.0,73,0.00,,---,0.00,VWS V12.08,2013-07-11 10:21:00,
2013-07-11 06:26:00,79.2,69.8,29.20,North,360,1.0,6.0,73,0.00,,---,0.00,VWS V12.08,2013-07-11 10:26:00,
2013-07-11 06:31:00,79.2,69.8,29.20,North,360,0.0,2.0,73,0.00,,---,0.00,VWS V12.08,2013-07-11 10:31:00,
2013-07-11 06:36:00,79.2,70.2,29.20,North,360,1.0,6.0,74,0.00,,---,0.00,VWS V12.08,2013-07-11 10:36:00,
2013-07-11 06:41:00,79.2,69.8,29.20,North,360,0.0,6.0,73,0.00,,---,0.00,VWS V12.08,2013-07-11 10:41:00,
2013-07-11 06:46:00,79.4,70.0,29.20,North,360,2.0,6.0,73,0.00,,---,0.00,VWS V12.08,2013-07-11 10:46:00,
2013-07-11 06:51:00,79.2,69.8,29.20,North,360,5.0,7.0,73,0.00,,---,0.00,VWS V12.08,2013-07-11 10:51:00,
2013-07-11 06:57:00,79.4,69.2,29.20,North,360,7.0,7.0,71,0.00,,---,0.00,VWS V12.08,2013-07-11 10:57:00,
2013-07-11 07:02:00,79.4,69.6,29.20,North,360,3.0,4.0,72,0.00,,---,0.00,VWS V12.08,2013-07-11 11:02:00,
2013-07-11 07:07:00,79.4,69.2,29.20,North,360,1.0,4.0,71,0.00,,---,0.00,VWS V12.08,2013-07-11 11:07:00,
2013-07-11 07:12:00,79.6,69.0,29.21,North,360,0.0,4.0,70,0.00,,---,0.00,VWS V12.08,2013-07-11 11:12:00,
2013-07-11 07:17:00,79.8,69.6,29.21,North,360,3.0,6.0,71,0.00,,---,0.00,VWS V12.08,2013-07-11 11:17:00,
2013-07-11 07:22:00,79.9,69.2,29.21,North,360,3.0,6.0,70,0.00,,---,0.00,VWS V12.08,2013-07-11 11:22:00,
2013-07-11 07:27:00,79.9,69.2,29.21,North,360,0.0,6.0,70,0.00,,---,0.00,VWS V12.08,2013-07-11 11:27:00,
2013-07-11 07:32:00,80.1,69.4,29.21,North,360,0.0,2.0,70,0.00,,---,0.00,VWS V12.08,2013-07-11 11:32:00,
2013-07-11 07:37:00,79.8,69.2,29.21,North,360,4.0,6.0,70,0.00,,---,0.00,VWS V12.08,2013-07-11 11:37:00,
2013-07-11 07:42:00,79.8,69.6,29.21,North,360,1.0,6.0,71,0.00,,---,0.00,VWS V12.08,2013-07-11 11:42:00,
2013-07-11 07:47:00,79.9,69.2,29.21,North,360,1.0,6.0,70,0.00,,---,0.00,VWS V12.08,2013-07-11 11:47:00,
2013-07-11 07:52:00,79.9,69.2,29.21,North,360,3.0,6.0,70,0.00,,---,0.00,VWS V12.08,2013-07-11 11:52:00,
2013-07-11 07:57:00,80.1,69.4,29.22,North,360,7.0,11.0,70,0.00,,---,0.00,VWS V12.08,2013-07-11 11:57:00,
2013-07-11 08:02:00,79.8,69.6,29.22,North,360,2.0,7.0,71,0.00,,---,0.00,VWS V12.08,2013-07-11 12:02:00,
2013-07-11 08:07:00,79.6,69.8,29.22,North,360,4.0,7.0,72,0.00,,---,0.00,VWS V12.08,2013-07-11 12:07:00,
2013-07-11 08:12:00,79.6,69.4,29.22,North,360,1.0,7.0,71,0.00,,---,0.00,VWS V12.08,2013-07-11 12:12:00,
2013-07-11 08:17:00,79.9,69.2,29.22,North,360,2.0,7.0,70,0.00,,---,0.00,VWS V12.08,2013-07-11 12:17:00,
2013-07-11 08:22:00,80.1,69.0,29.22,North,360,0.0,7.0,69,0.00,,---,0.00,VWS V12.08,2013-07-11 12:22:00,
2013-07-11 08:27:00,80.1,68.6,29.22,North,360,2.0,7.0,68,0.00,,---,0.00,VWS V12.08,2013-07-11 12:27:00,
2013-07-11 08:32:00,80.1,69.4,29.22,North,360,0.0,4.0,70,0.00,,---,0.00,VWS V12.08,2013-07-11 12:32:00,
2013-07-11 08:37:00,80.1,69.4,29.22,North,360,0.0,4.0,70,0.00,,---,0.00,VWS V12.08,2013-07-11 12:37:00,
2013-07-11 08:42:00,80.3,69.2,29.22,North,360,3.0,4.0,69,0.00,,---,0.00,VWS V12.08,2013-07-11 12:42:00,
2013-07-11 08:47:00,80.1,69.4,29.22,North,360,4.0,6.0,70,0.00,,---,0.00,VWS V12.08,2013-07-11 12:47:00,
2013-07-11 08:53:00,80.1,69.4,29.22,North,360,2.0,6.0,70,0.00,,---,0.00,VWS V12.08,2013-07-11 12:53:00,
2013-07-11 08:58:00,80.1,69.4,29.22,North,360,1.0,9.0,70,0.00,,---,0.00,VWS V12.08,2013-07-11 12:58:00,
2013-07-11 09:03:00,80.1,69.9,29.22,North,360,0.0,9.0,71,0.00,,---,0.00,VWS V12.08,2013-07-11 13:03:00,
2013-07-11 09:08:00,80.1,69.0,29.22,North,360,1.0,9.0,69,0.00,,---,0.00,VWS V12.08,2013-07-11 13:08:00,
2013-07-11 09:15:00,80.3,69.2,29.22,North,360,5.0,9.0,69,0.00,,---,0.00,VWS V12.08,2013-07-11 13:15:00,
2013-07-11 09:20:00,80.1,69.4,29.22,North,360,2.0,9.0,70,0.00,,---,0.00,VWS V12.08,2013-07-11 13:20:00,
2013-07-11 09:25:00,80.1,69.0,29.22,North,360,2.0,9.0,69,0.00,,---,0.00,VWS V12.08,2013-07-11 13:25:00,
2013-07-11 09:31:00,80.3,69.6,29.22,North,360,1.0,2.0,70,0.00,,---,0.00,VWS V12.08,2013-07-11 13:31:00,
2013-07-11 09:37:00,80.5,69.0,29.22,North,360,7.0,7.0,68,0.00,,---,0.00,VWS V12.08,2013-07-11 13:37:00,
2013-07-11 09:43:00,80.1,65.4,29.23,North,360,4.0,13.0,61,0.00,,---,0.00,VWS V12.08,2013-07-11 13:43:00,
2013-07-11 09:48:00,79.8,64.7,29.23,North,360,4.0,13.0,60,0.00,,---,0.00,VWS V12.08,2013-07-11 13:48:00,
2013-07-11 09:53:00,79.9,64.8,29.23,North,360,9.0,13.0,60,0.00,,---,0.00,VWS V12.08,2013-07-11 13:53:00,
2013-07-11 09:58:00,79.6,64.5,29.23,North,360,6.0,10.0,60,0.00,,---,0.00,VWS V12.08,2013-07-11 13:58:00,
2013-07-11 10:03:00,79.6,64.0,29.23,North,360,4.0,10.0,59,0.00,,---,0.00,VWS V12.08,2013-07-11 14:03:00,
2013-07-11 10:08:00,79.6,64.0,29.23,North,360,2.0,10.0,59,0.00,,---,0.00,VWS V12.08,2013-07-11 14:08:00,
2013-07-11 10:13:00,79.8,64.2,29.24,North,360,0.0,10.0,59,0.00,,---,0.00,VWS V12.08,2013-07-11 14:13:00,
2013-07-11 10:20:00,79.2,64.6,29.24,North,360,6.0,15.0,61,0.00,,---,0.00,VWS V12.08,2013-07-11 14:20:00,
2013-07-11 10:25:00,78.6,64.5,29.24,North,360,2.0,15.0,62,0.00,,---,0.00,VWS V12.08,2013-07-11 14:25:00,
2013-07-11 10:30:00,78.8,64.7,29.24,North,360,2.0,8.0,62,0.00,,---,0.00,VWS V12.08,2013-07-11 14:30:00,
2013-07-11 10:35:00,78.6,64.5,29.24,North,360,1.0,8.0,62,0.00,,---,0.00,VWS V12.08,2013-07-11 14:35:00,
2013-07-11 10:40:00,78.8,64.7,29.24,North,360,3.0,8.0,62,0.00,,---,0.00,VWS V12.08,2013-07-11 14:40:00,
2013-07-11 10:45:00,79.0,64.9,29.24,North,360,0.0,8.0,62,0.00,,---,0.00,VWS V12.08,2013-07-11 14:45:00,
2013-07-11 10:51:00,79.2,64.6,29.24,North,360,3.0,8.0,61,0.00,,---,0.00,VWS V12.08,2013-07-11 14:51:00,
2013-07-11 10:57:00,79.4,64.8,29.24,North,360,3.0,8.0,61,0.00,,---,0.00,VWS V12.08,2013-07-11 14:57:00,
2013-07-11 11:03:00,79.6,65.0,29.24,North,360,1.0,6.0,61,0.00,,---,0.00,VWS V12.08,2013-07-11 15:03:00,
2013-07-11 11:08:00,79.4,65.3,29.24,North,360,3.0,10.0,62,0.00,,---,0.00,VWS V12.08,2013-07-11 15:08:00,
2013-07-11 11:14:00,79.6,65.0,29.24,North,360,1.0,10.0,61,0.00,,---,0.00,VWS V12.08,2013-07-11 15:14:00,
2013-07-11 11:20:00,79.8,65.2,29.24,North,360,0.0,10.0,61,0.00,,---,0.00,VWS V12.08,2013-07-11 15:20:00,
2013-07-11 11:25:00,80.1,64.5,29.24,North,360,0.0,10.0,59,0.00,,---,0.00,VWS V12.08,2013-07-11 15:25:00,
2013-07-11 11:32:00,80.1,64.0,29.24,North,360,0.0,4.0,58,0.00,,---,0.00,VWS V12.08,2013-07-11 15:32:00,
2013-07-11 11:38:00,79.9,64.3,29.24,North,360,9.0,16.0,59,0.00,,---,0.00,VWS V12.08,2013-07-11 15:38:00,
2013-07-11 11:44:00,79.4,63.8,29.23,North,360,9.0,16.0,59,0.00,,---,0.00,VWS V12.08,2013-07-11 15:44:00,
2013-07-11 11:50:00,79.4,64.3,29.23,North,360,2.0,16.0,60,0.00,,---,0.00,VWS V12.08,2013-07-11 15:50:00,
2013-07-11 11:55:00,79.8,64.2,29.23,North,360,1.0,16.0,59,0.00,,---,0.00,VWS V12.08,2013-07-11 15:55:00,
2013-07-11 12:00:00,79.8,63.7,29.23,North,360,2.0,7.0,58,0.00,,---,0.00,VWS V12.08,2013-07-11 16:00:00,
2013-07-11 12:06:00,80.3,63.7,29.23,North,360,1.0,7.0,57,0.00,,---,0.00,VWS V12.08,2013-07-11 16:06:00,
2013-07-11 12:12:00,80.3,64.2,29.23,North,360,4.0,9.0,58,0.00,,---,0.00,VWS V12.08,2013-07-11 16:12:00,
2013-07-11 12:17:00,80.3,64.2,29.23,North,360,5.0,9.0,58,0.00,,---,0.00,VWS V12.08,2013-07-11 16:17:00,
2013-07-11 12:22:00,79.9,63.8,29.23,North,360,2.0,9.0,58,0.00,,---,0.00,VWS V12.08,2013-07-11 16:22:00,
2013-07-11 12:27:00,79.8,64.2,29.23,North,360,0.0,9.0,59,0.00,,---,0.00,VWS V12.08,2013-07-11 16:27:00,
2013-07-11 12:32:00,79.9,63.8,29.23,North,9,5.0,5.0,58,0.00,,---,0.00,VWS V12.08,2013-07-11 16:32:00,
2013-07-11 12:37:00,80.1,64.0,29.23,North,360,1.0,5.0,58,0.00,,---,0.00,VWS V12.08,2013-07-11 16:37:00,
2013-07-11 12:42:00,80.1,64.0,29.24,North,360,2.0,10.0,58,0.00,,---,0.00,VWS V12.08,2013-07-11 16:42:00,
2013-07-11 12:47:00,79.9,64.3,29.24,North,360,1.0,10.0,59,0.00,,---,0.00,VWS V12.08,2013-07-11 16:47:00,
2013-07-11 12:52:00,80.5,63.9,29.24,North,360,0.0,10.0,57,0.00,,---,0.00,VWS V12.08,2013-07-11 16:52:00,
2013-07-11 12:57:00,80.7,64.6,29.24,North,360,2.0,10.0,58,0.00,,---,0.00,VWS V12.08,2013-07-11 16:57:00,
2013-07-11 13:02:00,80.7,64.1,29.24,North,360,1.0,10.0,57,0.00,,---,0.00,VWS V12.08,2013-07-11 17:02:00,
2013-07-11 13:08:00,80.9,63.8,29.24,North,360,1.0,10.0,56,0.00,,---,0.00,VWS V12.08,2013-07-11 17:08:00,
2013-07-11 13:13:00,81.1,64.4,29.24,North,360,2.0,10.0,57,0.00,,---,0.00,VWS V12.08,2013-07-11 17:13:00,
2013-07-11 13:19:00,80.9,63.8,29.24,North,360,2.0,10.0,56,0.00,,---,0.00,VWS V12.08,2013-07-11 17:19:00,
2013-07-11 13:24:00,80.3,64.2,29.24,North,360,0.0,10.0,58,0.00,,---,0.00,VWS V12.08,2013-07-11 17:24:00,
2013-07-11 13:29:00,80.3,64.2,29.24,North,360,4.0,6.0,58,0.00,,---,0.00,VWS V12.08,2013-07-11 17:29:00,
2013-07-11 13:34:00,80.9,64.2,29.24,North,360,0.0,6.0,57,0.00,,---,0.00,VWS V12.08,2013-07-11 17:34:00,
2013-07-11 13:39:00,81.6,63.9,29.24,North,360,3.0,6.0,55,0.00,,---,0.00,VWS V12.08,2013-07-11 17:39:00,
2013-07-11 13:44:00,82.0,64.3,29.23,North,360,0.0,6.0,55,0.00,,---,0.00,VWS V12.08,2013-07-11 17:44:00,
2013-07-11 13:49:00,82.0,64.8,29.23,North,360,2.0,6.0,56,0.00,,---,0.00,VWS V12.08,2013-07-11 17:49:00,
2013-07-11 13:54:00,82.0,64.8,29.23,North,360,1.0,6.0,56,0.00,,---,0.00,VWS V12.08,2013-07-11 17:54:00,
2013-07-11 13:59:00,82.4,64.6,29.23,North,360,0.0,5.0,55,0.00,,---,0.00,VWS V12.08,2013-07-11 17:59:00,
2013-07-11 14:04:00,82.8,64.5,29.23,North,360,0.0,5.0,54,0.00,,---,0.00,VWS V12.08,2013-07-11 18:04:00,
2013-07-11 14:09:00,82.2,65.0,29.23,North,360,0.0,6.0,56,0.00,,---,0.00,VWS V12.08,2013-07-11 18:09:00,
2013-07-11 14:14:00,82.2,65.5,29.23,North,360,1.0,6.0,57,0.00,,---,0.00,VWS V12.08,2013-07-11 18:14:00,
2013-07-11 14:19:00,82.6,65.3,29.23,North,360,0.0,6.0,56,0.00,,---,0.00,VWS V12.08,2013-07-11 18:19:00,
2013-07-11 14:24:00,83.6,65.7,29.23,North,360,0.0,6.0,55,0.00,,---,0.00,VWS V12.08,2013-07-11 18:24:00,
2013-07-11 14:29:00,84.1,64.6,29.23,North,360,1.0,1.0,52,0.00,,---,0.00,VWS V12.08,2013-07-11 18:29:00,
2013-07-11 14:34:00,84.3,64.8,29.23,North,360,4.0,8.0,52,0.00,,---,0.00,VWS V12.08,2013-07-11 18:34:00,
2013-07-11 14:39:00,83.8,65.4,29.23,North,360,0.0,8.0,54,0.00,,---,0.00,VWS V12.08,2013-07-11 18:39:00,
2013-07-11 14:45:00,84.0,64.5,29.23,North,360,0.0,8.0,52,0.00,,---,0.00,VWS V12.08,2013-07-11 18:45:00,
2013-07-11 14:50:00,84.5,65.0,29.23,North,360,0.0,8.0,52,0.00,,---,0.00,VWS V12.08,2013-07-11 18:50:00,
2013-07-11 14:55:00,84.9,64.8,29.23,North,360,2.0,8.0,51,0.00,,---,0.00,VWS V12.08,2013-07-11 18:55:00,
2013-07-11 15:00:00,84.9,65.3,29.22,North,360,2.0,4.0,52,0.00,,---,0.00,VWS V12.08,2013-07-11 19:00:00,
2013-07-11 15:05:00,84.7,65.7,29.22,North,360,2.0,5.0,53,0.00,,---,0.00,VWS V12.08,2013-07-11 19:05:00,
2013-07-11 15:10:00,84.7,64.6,29.22,North,360,2.0,5.0,51,0.00,,---,0.00,VWS V12.08,2013-07-11 19:10:00,
2013-07-11 15:15:00,84.9,64.2,29.23,North,360,0.0,5.0,50,0.00,,---,0.00,VWS V12.08,2013-07-11 19:15:00,
2013-07-11 15:20:00,85.3,64.6,29.23,North,360,1.0,5.0,50,0.00,,---,0.00,VWS V12.08,2013-07-11 19:20:00,
2013-07-11 15:25:00,85.9,65.1,29.23,North,360,0.0,5.0,50,0.00,,---,0.00,VWS V12.08,2013-07-11 19:25:00,
2013-07-11 15:30:00,86.5,64.5,29.22,North,360,2.0,4.0,48,0.00,,---,0.00,VWS V12.08,2013-07-11 19:30:00,
2013-07-11 15:35:00,86.3,64.3,29.22,North,360,1.0,5.0,48,0.00,,---,0.00,VWS V12.08,2013-07-11 19:35:00,
2013-07-11 15:40:00,85.9,64.0,29.22,North,360,0.0,5.0,48,0.00,,---,0.00,VWS V12.08,2013-07-11 19:40:00,
2013-07-11 15:45:00,85.9,64.0,29.22,North,360,1.0,5.0,48,0.00,,---,0.00,VWS V12.08,2013-07-11 19:45:00,
2013-07-11 15:50:00,86.5,63.3,29.22,North,360,1.0,5.0,46,0.00,,---,0.00,VWS V12.08,2013-07-11 19:50:00,
2013-07-11 15:55:00,86.5,63.9,29.22,North,360,2.0,5.0,47,0.00,,---,0.00,VWS V12.08,2013-07-11 19:55:00,
2013-07-11 16:01:00,85.9,64.0,29.22,North,360,1.0,5.0,48,0.00,,---,0.00,VWS V12.08,2013-07-11 20:01:00,
2013-07-11 16:07:00,86.3,64.3,29.22,North,360,5.0,6.0,48,0.00,,---,0.00,VWS V12.08,2013-07-11 20:07:00,
2013-07-11 16:12:00,86.3,63.7,29.22,North,360,1.0,6.0,47,0.00,,---,0.00,VWS V12.08,2013-07-11 20:12:00,
2013-07-11 16:17:00,86.7,63.5,29.22,North,360,0.0,6.0,46,0.00,,---,0.00,VWS V12.08,2013-07-11 20:17:00,
2013-07-11 16:22:00,86.7,63.5,29.22,North,360,0.0,6.0,46,0.00,,---,0.00,VWS V12.08,2013-07-11 20:22:00,
2013-07-11 16:27:00,86.5,64.5,29.22,North,360,2.0,6.0,48,0.00,,---,0.00,VWS V12.08,2013-07-11 20:27:00,
2013-07-11 16:32:00,86.5,63.9,29.22,North,360,1.0,6.0,47,0.00,,---,0.00,VWS V12.08,2013-07-11 20:32:00,
2013-07-11 16:37:00,86.7,62.8,29.22,North,350,5.0,6.0,45,0.00,,---,0.00,VWS V12.08,2013-07-11 20:37:00,
2013-07-11 16:42:00,86.7,64.1,29.22,North,360,2.0,6.0,47,0.00,,---,0.00,VWS V12.08,2013-07-11 20:42:00,
2013-07-11 16:47:00,86.3,63.7,29.22,North,360,1.0,6.0,47,0.00,,---,0.00,VWS V12.08,2013-07-11 20:47:00,
2013-07-11 16:52:00,86.3,64.3,29.22,North,360,0.0,6.0,48,0.00,,---,0.00,VWS V12.08,2013-07-11 20:52:00,
2013-07-11 16:57:00,85.9,64.0,29.22,North,360,0.0,6.0,48,0.00,,---,0.00,VWS V12.08,2013-07-11 20:57:00,
2013-07-11 17:02:00,85.7,64.4,29.22,North,360,0.0,3.0,49,0.00,,---,0.00,VWS V12.08,2013-07-11 21:02:00,
2013-07-11 17:07:00,85.9,64.5,29.22,North,360,0.0,4.0,49,0.00,,---,0.00,VWS V12.08,2013-07-11 21:07:00,
2013-07-11 17:12:00,85.7,64.9,29.22,North,360,4.0,5.0,50,0.00,,---,0.00,VWS V12.08,2013-07-11 21:12:00,
2013-07-11 17:17:00,85.5,64.2,29.22,North,360,3.0,7.0,49,0.00,,---,0.00,VWS V12.08,2013-07-11 21:17:00,
2013-07-11 17:22:00,86.1,64.1,29.22,North,360,0.0,7.0,48,0.00,,---,0.00,VWS V12.08,2013-07-11 21:22:00,
2013-07-11 17:27:00,86.5,64.5,29.22,North,360,0.0,7.0,48,0.00,,---,0.00,VWS V12.08,2013-07-11 21:27:00,
2013-07-11 17:33:00,86.1,64.7,29.22,North,360,2.0,8.0,49,0.00,,---,0.00,VWS V12.08,2013-07-11 21:33:00,
2013-07-11 17:38:00,85.9,64.5,29.22,North,360,1.0,8.0,49,0.00,,---,0.00,VWS V12.08,2013-07-11 21:38:00,
2013-07-11 17:43:00,85.9,64.0,29.22,North,360,2.0,8.0,48,0.00,,---,0.00,VWS V12.08,2013-07-11 21:43:00,
2013-07-11 17:48:00,85.9,64.5,29.22,North,360,2.0,8.0,49,0.00,,---,0.00,VWS V12.08,2013-07-11 21:48:00,
2013-07-11 17:53:00,85.9,63.3,29.22,North,360,0.0,8.0,47,0.00,,---,0.00,VWS V12.08,2013-07-11 21:53:00,
2013-07-11 17:59:00,86.3,64.3,29.22,North,360,0.0,1.0,48,0.00,,---,0.00,VWS V12.08,2013-07-11 21:59:00,
2013-07-11 18:04:00,86.7,64.1,29.22,North,360,0.0,3.0,47,0.00,,---,0.00,VWS V12.08,2013-07-11 22:04:00,
2013-07-11 18:09:00,86.7,64.1,29.22,North,360,1.0,5.0,47,0.00,,---,0.00,VWS V12.08,2013-07-11 22:09:00,
2013-07-11 18:16:00,86.3,63.7,29.23,North,360,0.0,5.0,47,0.00,,---,0.00,VWS V12.08,2013-07-11 22:16:00,
2013-07-11 18:22:00,85.9,63.3,29.23,North,5,0.0,7.0,47,0.00,,---,0.00,VWS V12.08,2013-07-11 22:22:00,
2013-07-11 18:28:00,85.7,63.2,29.23,North,360,3.0,7.0,47,0.00,,---,0.00,VWS V12.08,2013-07-11 22:28:00,
2013-07-11 18:34:00,85.3,62.8,29.23,North,360,0.0,9.0,47,0.00,,---,0.00,VWS V12.08,2013-07-11 22:34:00,
2013-07-11 18:39:00,85.5,62.4,29.23,North,360,3.0,9.0,46,0.00,,---,0.00,VWS V12.08,2013-07-11 22:39:00,
2013-07-11 18:44:00,85.9,62.1,29.23,North,360,0.0,9.0,45,0.00,,---,0.00,VWS V12.08,2013-07-11 22:44:00,
2013-07-11 18:51:00,85.9,62.1,29.23,North,360,0.0,9.0,45,0.00,,---,0.00,VWS V12.08,2013-07-11 22:51:00,
2013-07-11 18:56:00,85.5,61.1,29.23,North,360,10.0,10.0,44,0.00,,---,0.00,VWS V12.08,2013-07-11 22:56:00,
2013-07-11 19:01:00,85.5,61.1,29.24,North,360,1.0,4.0,44,0.00,,---,0.00,VWS V12.08,2013-07-11 23:01:00,
2013-07-11 19:06:00,85.5,61.1,29.24,North,360,0.0,9.0,44,0.00,,---,0.00,VWS V12.08,2013-07-11 23:06:00,
2013-07-11 19:11:00,85.7,60.7,29.24,North,360,3.0,9.0,43,0.00,,---,0.00,VWS V12.08,2013-07-11 23:11:00,
2013-07-11 19:16:00,85.1,59.5,29.25,North,360,7.0,12.0,42,0.00,,---,0.00,VWS V12.08,2013-07-11 23:16:00,
2013-07-11 19:21:00,84.7,59.1,29.25,North,360,4.0,12.0,42,0.00,,---,0.00,VWS V12.08,2013-07-11 23:21:00,
2013-07-11 19:26:00,84.1,59.2,29.25,North,360,9.0,12.0,43,0.00,,---,0.00,VWS V12.08,2013-07-11 23:26:00,
2013-07-11 19:31:00,84.0,59.1,29.25,North,360,3.0,4.0,43,0.00,,---,0.00,VWS V12.08,2013-07-11 23:31:00,
2013-07-11 19:36:00,83.8,58.9,29.25,North,360,5.0,8.0,43,0.00,,---,0.00,VWS V12.08,2013-07-11 23:36:00,
2013-07-11 19:42:00,83.8,58.9,29.25,North,360,1.0,9.0,43,0.00,,---,0.00,VWS V12.08,2013-07-11 23:42:00,
2013-07-11 19:48:00,83.6,59.4,29.25,North,360,0.0,9.0,44,0.00,,---,0.00,VWS V12.08,2013-07-11 23:48:00,
2013-07-11 19:53:00,83.2,59.0,29.25,North,360,1.0,9.0,44,0.00,,---,0.00,VWS V12.08,2013-07-11 23:53:00,
2013-07-11 19:58:00,83.0,60.1,29.25,North,360,4.0,7.0,46,0.00,,---,0.00,VWS V12.08,2013-07-11 23:58:00,
2013-07-11 20:03:00,82.8,60.5,29.25,North,360,5.0,10.0,47,0.00,,---,0.00,VWS V12.08,2013-07-12 00:03:00,
2013-07-11 20:08:00,82.6,60.3,29.25,North,360,0.0,10.0,47,0.00,,---,0.00,VWS V12.08,2013-07-12 00:08:00,
2013-07-11 20:13:00,82.4,60.2,29.26,North,360,5.0,11.0,47,0.00,,---,0.00,VWS V12.08,2013-07-12 00:13:00,
2013-07-11 20:18:00,82.4,59.6,29.26,North,360,10.0,11.0,46,0.00,,---,0.00,VWS V12.08,2013-07-12 00:18:00,
2013-07-11 20:23:00,82.4,59.6,29.26,North,360,8.0,11.0,46,0.00,,---,0.00,VWS V12.08,2013-07-12 00:23:00,
2013-07-11 20:29:00,82.0,58.6,29.26,North,360,0.0,4.0,45,0.00,,---,0.00,VWS V12.08,2013-07-12 00:29:00,
2013-07-11 20:34:00,81.8,59.0,29.26,North,360,3.0,10.0,46,0.00,,---,0.00,VWS V12.08,2013-07-12 00:34:00,
2013-07-11 20:39:00,81.6,58.8,29.26,North,360,4.0,13.0,46,0.00,,---,0.00,VWS V12.08,2013-07-12 00:39:00,
2013-07-11 20:44:00,81.4,58.7,29.26,North,360,5.0,13.0,46,0.00,,---,0.00,VWS V12.08,2013-07-12 00:44:00,
2013-07-11 20:49:00,81.4,59.3,29.26,North,360,3.0,13.0,47,0.00,,---,0.00,VWS V12.08,2013-07-12 00:49:00,
2013-07-11 20:54:00,81.2,59.7,29.26,North,360,9.0,13.0,48,0.00,,---,0.00,VWS V12.08,2013-07-12 00:54:00,
2013-07-11 21:00:00,81.1,61.3,29.27,North,355,6.0,8.0,51,0.00,,---,0.00,VWS V12.08,2013-07-12 01:00:00,
2013-07-11 21:05:00,80.9,61.1,29.27,North,360,2.0,8.0,51,0.00,,---,0.00,VWS V12.08,2013-07-12 01:05:00,
2013-07-11 21:10:00,80.9,62.2,29.27,North,360,3.0,10.0,53,0.00,,---,0.00,VWS V12.08,2013-07-12 01:10:00,
2013-07-11 21:16:00,80.5,63.4,29.27,North,360,0.0,10.0,56,0.00,,---,0.00,VWS V12.08,2013-07-12 01:16:00,
2013-07-11 21:21:00,80.5,63.9,29.27,North,360,2.0,13.0,57,0.00,,---,0.00,VWS V12.08,2013-07-12 01:21:00,
2013-07-11 21:26:00,80.1,63.5,29.27,North,360,2.0,13.0,57,0.00,,---,0.00,VWS V12.08,2013-07-12 01:26:00,
2013-07-11 21:31:00,80.5,62.3,29.28,North,360,0.0,3.0,54,0.00,,---,0.00,VWS V12.08,2013-07-12 01:31:00,
2013-07-11 21:36:00,80.7,60.9,29.28,North,360,0.0,4.0,51,0.00,,---,0.00,VWS V12.08,2013-07-12 01:36:00,
2013-07-11 21:42:00,80.7,60.3,29.28,North,360,0.0,6.0,50,0.00,,---,0.00,VWS V12.08,2013-07-12 01:42:00,
2013-07-11 21:48:00,80.5,59.6,29.28,North,360,0.0,9.0,49,0.00,,---,0.00,VWS V12.08,2013-07-12 01:48:00,
2013-07-11 21:54:00,80.3,58.8,29.28,North,360,1.0,10.0,48,0.00,,---,0.00,VWS V12.08,2013-07-12 01:54:00,
2013-07-11 21:59:00,80.5,59.0,29.29,North,360,1.0,2.0,48,0.00,,---,0.00,VWS V12.08,2013-07-12 01:59:00,
2013-07-11 22:04:00,80.5,59.0,29.29,North,360,0.0,11.0,48,0.00,,---,0.00,VWS V12.08,2013-07-12 02:04:00,
2013-07-11 22:09:00,80.7,58.6,29.29,North,360,0.0,11.0,47,0.00,,---,0.00,VWS V12.08,2013-07-12 02:09:00,
2013-07-11 22:14:00,81.1,58.4,29.28,North,360,0.0,11.0,46,0.00,,---,0.00,VWS V12.08,2013-07-12 02:14:00,
2013-07-11 22:19:00,81.2,57.9,29.28,North,360,0.0,11.0,45,0.00,,---,0.00,VWS V12.08,2013-07-12 02:19:00,
2013-07-11 22:24:00,81.2,57.2,29.28,North,360,1.0,11.0,44,0.00,,---,0.00,VWS V12.08,2013-07-12 02:24:00,
2013-07-11 22:29:00,81.1,57.2,29.28,North,360,1.0,5.0,44,0.00,,---,0.00,VWS V12.08,2013-07-12 02:29:00,
2013-07-11 22:34:00,80.7,57.4,29.28,North,360,0.0,5.0,45,0.00,,---,0.00,VWS V12.08,2013-07-12 02:34:00,
2013-07-11 22:39:00,80.9,57.6,29.28,North,360,0.0,5.0,45,0.00,,---,0.00,VWS V12.08,2013-07-12 02:39:00,
2013-07-11 22:44:00,80.7,58.0,29.28,North,360,0.0,5.0,46,0.00,,---,0.00,VWS V12.08,2013-07-12 02:44:00,
2013-07-11 22:49:00,80.7,58.0,29.28,North,360,0.0,5.0,46,0.00,,---,0.00,VWS V12.08,2013-07-12 02:49:00,
2013-07-11 22:54:00,80.5,57.8,29.28,North,360,4.0,5.0,46,0.00,,---,0.00,VWS V12.08,2013-07-12 02:54:00,
2013-07-11 22:59:00,80.5,57.8,29.28,North,360,0.0,2.0,46,0.00,,---,0.00,VWS V12.08,2013-07-12 02:59:00,
2013-07-11 23:04:00,80.3,57.7,29.28,North,360,0.0,2.0,46,0.00,,---,0.00,VWS V12.08,2013-07-12 03:04:00,
2013-07-11 23:09:00,80.3,58.2,29.28,North,360,1.0,2.0,47,0.00,,---,0.00,VWS V12.08,2013-07-12 03:09:00,
2013-07-11 23:14:00,80.1,58.1,29.29,North,360,4.0,10.0,47,0.00,,---,0.00,VWS V12.08,2013-07-12 03:14:00,
2013-07-11 23:19:00,79.9,56.7,29.29,North,360,0.0,13.0,45,0.00,,---,0.00,VWS V12.08,2013-07-12 03:19:00,
2013-07-11 23:25:00,79.8,58.4,29.29,North,360,0.0,13.0,48,0.00,,---,0.00,VWS V12.08,2013-07-12 03:25:00,
2013-07-11 23:30:00,79.9,57.9,29.29,North,360,0.0,2.0,47,0.00,,---,0.00,VWS V12.08,2013-07-12 03:30:00,
2013-07-11 23:36:00,80.1,58.1,29.29,North,360,0.0,3.0,47,0.00,,---,0.00,VWS V12.08,2013-07-12 03:36:00,
2013-07-11 23:43:00,80.1,58.1,29.29,North,360,0.0,7.0,47,0.00,,---,0.00,VWS V12.08,2013-07-12 03:43:00,
2013-07-11 23:48:00,80.1,58.1,29.29,North,360,0.0,7.0,47,0.00,,---,0.00,VWS V12.08,2013-07-12 03:48:00,
2013-07-11 23:54:00,79.9,58.5,29.29,South,188,0.0,7.0,48,0.00,,---,0.00,VWS V12.08,2013-07-12 03:54:00,